STARLINK-34785

Last updated on Tue Sep 16 2025 00:02:07 GMT+0000 (Coordinated Universal Time)

1 65354U 25190D 25257.99167096 -.00584626 00000+0 -65057-2 0 9995 2 65354 53.1586 267.9331 0003348 13.7420 346.3686 15.64046455 2333
UTC large
Height (km)
Speed (km/s)
/
Latitude / Longitude
Inclination (degrees)
Orbital Period (minutes)
Azimuth
Elevation
Range (km)
Doppler Factor

Next 0 passes for location: London (51.5072 / 0.1276)

Sorry there are no passes over London.